FENGYUN 1C DEB, 30516

Orbit data source: Space-Track

FENGYUN 1C DEB, 30516 is space debris in SSO originally from a launch on Mon, 10 May 1999 UTC launched from the Taiyaun Space Center, China (TSC). Fengyun 1C debris stems from the Chinese weather satellite Fengyun-1C, which was intentionally destroyed by a Chinese anti-satellite missile in 2007. This event dramatically increased the amount of space debris, with thousands of trackable fragments posing hazards to satellites and human spaceflight. The Fengyun 1C debris cloud has become a focal point in discussions about space sustainability and the need for international regulations to prevent the creation of new debris.

Loading next visibility...
Identifier
30516, 1999-025AJE
Orbit
SSO
Country
Flag of CNCN / PRC
Related business
Manufacturer
Unknown
Mission
Spacecraft
Bus & Motor
Unknown
Mass
Unknown
Launch date (UTC)
1999-05-10 (27 years ago)
Launch vehicle
Unknown
Launch site
Taiyaun Space Center, China (TSC)
Object type
Payload
Rocket body
Debris
Shape & HBR
Unknown shape, 0.1 m
Radar Cross Section
Medium (>0.1 m² and <1 m²)

Expand to show TLE details & history
Last TLE update: 10 hours ago

TLE from 10 hours ago
0 FENGYUN 1C DEB
1 30516U 99025AJE 26255.29594907  .00003638  00000-0  10578-2 0  9998
2 30516  98.8655  15.2189 0009676 192.7940 196.7468 14.44885217 16613
Epoch: 2026-09-12T07:06Z
TLE epoch observation values (Epoch: 2026-09-12T07:06:09.999Z)
Latitude
29.1711°
Longitude
-87.59811°
Altitude
752.64 km
Speed
7.477 km/s
True Right ascension
00h 41m 00s
True Declination
29° 01' 30"
Sunlit
Object was in full shadow at epoch
Visualization orbit readout
Latitude
Unknown
Longitude
Unknown
Altitude
Unknown
Speed
Unknown
Apparent Right ascension
Unknown
Apparent Declination
Unknown
Sunlit
N/A
Visualization observer readout
Local Sidereal Time
09:43:07
Azimuth
Unknown
Elevation
Unknown
Doppler factor
Unknown
Orbital elements
Apogee altitude
746.423 km
Perigee altitude
732.649 km
Semi-major axis
7,117.673 km
Eccentricity
0.00097
Inclination
98.8655°
RAAN
15.2189°
Arg. of periapsis
192.794°
True anomaly
196.71489°
Mean anomaly
196.7468°
Eccentric anomaly
196.73084°
Mean motion
3.6144 °/min
Orbital period
99.6 mins
BSTAR
0.0010578
Loading maneuver chart data...
Computing Atmospheric mass density...
Loading historical data...
Loading historical data...
Loading historical data...
Loading historical data...
Loading historical data...
Loading historical data...
Loading historical data...

Documentation

Showing up to 5 results
|